N2NET Weather Reports


Display with metric or nautical units.
time (UTC)temp
F
wind
direction
speed
MPH
gust
MPH
rain 1hr
in
rain 24hr
in
rain mn
in
humidity
%
barometer
mb
20260906224605 65 314 1.0 3.0 0.00 0.00 0.00 67 1016.7
20260906223107 67 304 2.0 5.0 0.00 0.00 0.00 63 1016.8
20260906221604 68 0 2.0 5.0 0.00 0.00 0.00 62 1016.7
20260906220100 69 0 0.0 2.0 0.00 0.00 0.00 62 1016.6
20260906214611 69 325 2.0 6.0 0.00 0.00 0.00 58 1016.4
20260906213059 69 327 5.0 10.0 0.00 0.00 0.00 58 1016.5
20260906211606 69 325 2.0 5.0 0.00 0.00 0.00 59 1016.4
20260906210117 68 0 1.0 7.0 0.00 0.00 0.00 62 1016.3
20260906204612 69 51 4.0 14.0 0.00 0.00 0.00 60 1016.2
20260906203103 69 297 4.0 9.0 0.00 0.00 0.00 60 1016.0
20260906201607 68 333 2.0 7.0 0.00 0.00 0.00 59 1016.1
20260906200104 69 67 1.0 5.0 0.00 0.00 0.00 59 1016.2
20260906194558 70 43 3.0 9.0 0.00 0.00 0.00 58 1016.2
20260906193108 70 291 1.0 7.0 0.00 0.00 0.00 57 1016.1
20260906191609 70 25 3.0 11.0 0.00 0.00 0.00 58 1016.2
20260906190057 71 136 2.0 8.0 0.00 0.00 0.00 58 1016.1
20260906184605 70 314 6.0 10.0 0.00 0.00 0.00 56 1016.1
20260906183100 69 124 1.0 8.0 0.00 0.00 0.00 62 1016.2
20260906181600 68 15 2.0 8.0 0.00 0.00 0.00 63 1016.5
20260906180124 68 23 3.0 5.0 0.00 0.00 0.00 64 1016.4
20260906174606 68 34 2.0 7.0 0.00 0.00 0.00 60 1016.5
20260906173101 69 312 4.0 10.0 0.00 0.00 0.00 62 1016.5
20260906171558 68 152 1.0 4.0 0.00 0.00 0.00 63 1016.5
20260906170108 68 18 2.0 4.0 0.00 0.00 0.00 63 1016.6
20260906164602 67 0 1.0 6.0 0.00 0.00 0.00 66 1016.8
20260906163104 66 312 3.0 7.0 0.00 0.00 0.00 66 1016.8
20260906161603 66 340 3.0 11.0 0.00 0.00 0.00 67 1017.0
20260906160104 66 359 2.0 7.0 0.00 0.00 0.00 68 1016.8
20260906154603 66 309 0.0 6.0 0.00 0.00 0.00 68 1016.8
20260906153117 67 3 3.0 7.0 0.00 0.00 0.00 66 1016.7
20260906151605 68 123 2.0 9.0 0.00 0.00 0.00 65 1016.8
20260906144606 66 301 3.0 11.0 0.00 0.00 0.00 67 1016.6
20260906143106 65 0 2.0 11.0 0.00 0.00 0.00 68 1016.4
20260906141604 64 44 2.0 11.0 0.00 0.00 0.00 68 1016.3
20260906140106 64 359 3.0 11.0 0.00 0.00 0.00 68 1016.3
20260906134617 65 125 2.0 14.0 0.00 0.00 0.00 66 1016.1
20260906133109 64 63 2.0 11.0 0.00 0.00 0.00 60 1016.0
20260906131604 63 141 1.0 7.0 0.00 0.00 0.00 22 1016.0
20260906130058 60 304 4.0 10.0 0.00 0.00 0.00 100 1016.1
20260906124606 58 0 0.0 2.0 0.00 0.00 0.00 100 1016.0
20260906123104 57 0 0.0 3.0 0.00 0.00 0.00 100 1016.0
20260906121610 56 0 0.0 2.0 0.00 0.00 0.00 100 1016.1
20260906120107 55 0 0.0 2.0 0.00 0.00 0.00 100 1015.8
20260906114614 54 0 0.0 1.0 0.00 0.00 0.00 100 1015.6
20260906113107 54 0 0.0 1.0 0.00 0.00 0.00 100 1015.5
20260906111606 54 307 0.0 0.0 0.00 0.00 0.00 100 1015.2
20260906110057 53 0 0.0 0.0 0.00 0.00 0.00 100 1015.0
20260906104603 53 0 0.0 0.0 0.00 0.00 0.00 100 1014.8
20260906103108 53 0 0.0 1.0 0.00 0.00 0.00 100 1014.7
20260906101558 53 0 0.0 0.0 0.00 0.00 0.00 100 1014.5
20260906100106 53 0 0.0 0.0 0.00 0.00 0.00 100 1014.4
20260906094608 53 0 0.0 0.0 0.00 0.00 0.00 100 1014.4
20260906093102 52 0 0.0 1.0 0.00 0.00 0.00 100 1014.3
20260906091604 52 0 0.0 0.0 0.00 0.00 0.00 100 1014.2
20260906090118 52 0 0.0 0.0 0.00 0.00 0.00 100 1014.0
20260906084610 52 0 0.0 0.0 0.00 0.00 0.00 100 1013.9
20260906083111 52 0 0.0 0.0 0.00 0.00 0.00 100 1013.7
20260906081601 53 0 0.0 1.0 0.00 0.00 0.00 100 1013.5
20260906080127 53 0 0.0 2.0 0.00 0.00 0.00 100 1013.8
20260906074610 54 307 0.0 0.0 0.00 0.00 0.00 100 1013.7
20260906073115 54 0 0.0 0.0 0.00 0.00 0.00 100 1013.7
20260906071603 55 0 1.0 3.0 0.00 0.00 0.00 100 1013.8
20260906070106 55 0 0.0 3.0 0.00 0.00 0.00 100 1013.7
20260906064558 56 0 0.0 0.0 0.00 0.00 0.00 100 1013.7
20260906063058 57 0 0.0 0.0 0.00 0.00 0.00 100 1013.7
20260906061607 57 0 0.0 2.0 0.00 0.00 0.00 100 1013.7
20260906054557 58 0 0.0 0.0 0.00 0.00 0.00 100 1014.1
20260906053101 58 0 0.0 0.0 0.00 0.00 0.00 100 1014.1
20260906051604 58 0 0.0 1.0 0.00 0.00 0.00 100 1014.2
20260906050112 58 225 0.0 1.0 0.00 0.00 0.00 100 1014.1
20260906044602 58 0 0.0 1.0 0.00 0.00 0.00 100 1014.1
20260906043103 58 0 0.0 1.0 0.00 0.00 0.00 100 1014.1
20260906041605 57 0 0.0 0.0 0.00 0.00 0.00 100 1014.1
20260906040105 57 0 0.0 0.0 0.00 0.00 0.00 100 1014.2
20260906034638 58 0 0.0 0.0 0.00 0.00 0.00 100 1014.2
20260906033102 58 0 0.0 0.0 0.00 0.00 0.00 100 1014.1
20260906031605 58 0 0.0 0.0 0.00 0.00 0.00 100 1013.9
20260906030105 59 0 0.0 0.0 0.00 0.00 0.00 100 1013.8
20260906024601 59 0 0.0 0.0 0.00 0.00 0.00 100 1013.9
20260906023105 59 0 0.0 0.0 0.00 0.00 0.00 100 1013.8
20260906021611 59 0 0.0 0.0 0.00 0.00 0.00 100 1013.8
20260906020107 59 0 0.0 0.0 0.00 0.00 0.00 100 1013.8
20260906014556 59 0 0.0 0.0 0.00 0.00 0.00 100 1013.6
20260906013106 59 0 0.0 0.0 0.00 0.00 0.00 100 1013.5
20260906011604 60 0 0.0 0.0 0.00 0.00 0.00 100 1013.4
20260906010105 60 0 0.0 0.0 0.00 0.00 0.00 100 1013.4
20260906004559 61 0 0.0 3.0 0.00 0.00 0.00 100 1013.4
20260906003101 61 0 0.0 0.0 0.00 0.00 0.00 100 1013.2
20260906001604 62 0 0.0 0.0 0.00 0.00 0.00 100 1013.0
20260906000109 63 0 0.0 0.0 0.00 0.00 0.00 100 1013.0
20260905234621 63 0 0.0 0.0 0.00 0.00 0.00 21 1013.0
20260905233105 64 0 0.0 0.0 0.00 0.00 0.00 44 1013.0
20260905231607 65 0 0.0 3.0 0.00 0.00 0.00 58 1012.9
20260905230110 65 0 0.0 0.0 0.00 0.00 0.00 65 1012.7